Regional Weather Roundup
Issued by NWS

Home | Current Version | Previous Version | Graphics & Text | Print | Product List | Glossary On
Versions: 1 2 3 4 5 6 7 8 9 10 11 12 13 14 15 16 17 18 19 20 21 22 23 24 25 26 27 28 29 30 31 32 33 34 35 36 37 38 39 40 41 42 43 44 45 46 47 48 49 50
000
ASUS43 KLOT 011406
RWRIL

ILLINOIS REGIONAL WEATHER ROUNDUP
NATIONAL WEATHER SERVICE CHICAGO/ROMEOVILLE IL
800 AM CST SUN FEB 01 2015

NOTE: "FAIR" INDICATES FEW OR NO CLOUDS BELOW 12,000 FEET WITH NO
SIGNIFICANT WEATHER AND/OR OBSTRUCTIONS TO VISIBILITY.

* THESE STATIONS ARE NOT UNDER NWS QUALITY CONTROL. THEY ALSO MAY NOT
  REPORT WEATHER SUCH AS PRECIPITATION OR FOG.

ILZ001-002-007-009-015-016-024-011500-
NORTHWEST ILLINOIS

CITY           SKY/WX    TMP DP  RH WIND       PRES   REMARKS
MOLINE         SNOW      32  30  92 NE16      29.84S VSB 1/2 WCI  21
STERLING*        N/A    N/A N/A N/A MISG        N/A
SAVANNA*       LGT SNOW  28  25  89 NE20G25   29.91F WCI  15
$$

ILZ003-004-008-010-011-017-018-011500-
NORTH CENTRAL ILLINOIS

CITY           SKY/WX    TMP DP  RH WIND       PRES   REMARKS
ROCKFORD       SNOW      27  23  85 NE21G31   29.95F VSB 1/2 WCI  13
FREEPORT*      LGT SNOW  25  23  92 NE22      29.94F WCI  10
ROCHELLE*      LGT SNOW  30  29  96 NE14G22   29.90F VSB 3/4 WCI  19
DE KALB*       SNOW      28  27  96 NE17      29.90F VSB 1/2 WCI  16
PERU*          SNOW      33  33 100 E8        29.87S VSB 1/4 WCI  26
$$

ILZ005-006-012>014-019>023-011500-
NORTHEAST ILLINOIS

CITY           SKY/WX    TMP DP  RH WIND       PRES   REMARKS
CHICAGO-OHARE  SNOW      30  29  96 NE15      29.93F VSB 1/2 WCI  19
CHICAGO-MIDWAY SNOW      33  31  92 E12       29.93F VSB 1/2 WCI  24
AURORA         SNOW      32  28  85 NE16G26   29.90F VSB 1/4 WCI  21
LANSING*       SNOW      32  32 100 E6        29.92F VSB 1/4 WCI  26
JOLIET*        LGT SNOW  32  31  98 NE5       29.89F VSB 1   WCI  27
WAUKEGAN       SNOW      27  25  92 NE20G31   29.98F VSB 1/4 WCI  13
DUPAGE AIRPORT HVY SNOW  31  29  92 NE17      29.91F VSB 1/4 WCI  19
KANKAKEE*      LGT SNOW  33  32  99 E9        29.89F WCI  25
WHEELING       SNOW      29  27  92 NE16G24   29.98F VSB 1/4 WCI  17
MORRIS*        SNOW      32  32 100 E5        29.88F VSB 1/2 WCI  28
ROMEOVILLE*    LGT SNOW  32  32 100 NE8       29.90F WCI  25
NORTHERLY ISL    N/A     31  31 100 E18         N/A  WCI  19
$$

LMZ740>746-011500-
SOUTHERN LAKE MICHIGAN

STATION/POSITION SKY/WX   TEMP    WIND        PRES    VSBY  WAVE
                          AIR SEA DIR/SP/G                  HT/PER
                          (F)     (DEG/KT/KT) (MB)    (MI)  (FT/S)
WAUKEGAN HARBOR            28      50/ 27/ 34   N/A
HARRISON CRIB              31      70/ 24/ 28   N/A
BURNHAM HARBOR             31      70/ 15/ 19   N/A
CALUMET HARBOR             31      60/ 12/ 16   N/A
MICHIGAN CITY              30      60/ 11/ 13   N/A
$$

ILZ025>027-034>036-040-047-049-050-058-095>099-011500-
WEST-CENTRAL ILLINOIS

CITY           SKY/WX    TMP DP  RH WIND       PRES   REMARKS
QUINCY         LGT SNOW  33  32  96 SE6       29.74F VSB 1   WCI  28
GALESBURG*     LGT SNOW  32  32 100 E6        29.79F VSB 3/4 WCI  26
MACOMB*        CLOUDY    32  32 100 E6        29.80F WCI  26
JACKSONVILLE*  LGT SNOW  35  33  94 SE7       29.77F VSB 1   WCI  29
PITTSFIELD*    MIX PCPN  33  32  96 SE3       29.76F
$$

ILZ028>032-037-038-041>044-048-051>054-059>061-011500-
CENTRAL ILLINOIS

CITY           SKY/WX    TMP DP  RH WIND       PRES   REMARKS
PONTIAC        LGT SNOW  33  33  99 E13       29.85F VSB 3/4 WCI  24
BLOOMINGTON    SNOW      33  33 100 SE12      29.82F VSB 1/2 WCI  24
DECATUR        SNOW      33  32  96 SE12      29.81F VSB 1/4 WCI  24
PEORIA         SNOW      34  32  92 E8        29.82F VSB 1/2 WCI  27
LACON*         LGT SNOW  32  31  98 E5        29.84S VSB 3/4 WCI  27
LINCOLN*       LGT SNOW  34  33  96 SE6       29.82F VSB 3/4 WCI  29
SPRINGFIELD    LGT SNOW  34  32  92 SE7       29.79F VSB 1   WCI  28
TAYLORVILLE    LGT SNOW  32  32 100 SE10      29.79F WCI  24
$$

ILZ033-039-045-046-055>057-062-063-011500-
EAST-CENTRAL ILLINOIS

CITY           SKY/WX    TMP DP  RH WIND       PRES   REMARKS
CHAMPAIGN      LGT SNOW  32  31  96 E18       29.83F VSB 3/4 WCI  20
DANVILLE*      LGT SNOW  32  31  96 E13       29.84F VSB 1   WCI  23
RANTOUL*       SNOW      34  33  96 E12       29.84F VSB 1/2 WCI  25
MATTOON        LGT SNOW  32  30  92 SE15      29.81F FOG     WCI  22
PARIS*         LGT SNOW  32  32  99 E7        29.87F WCI  26
$$

ILZ079-100>102-011500-
SOUTHWEST ILLINOIS

CITY           SKY/WX    TMP DP  RH WIND       PRES   REMARKS
ALTON          LGT RAIN  34  34 100 SE12      29.79F WCI  25
BELLEVILLE     LGT RAIN  35  35  99 SE7       29.80S FOG     WCI  30
CAHOKIA*       LGT RAIN  36  35  96 SE7       29.79F FOG     WCI  30
SPARTA*        LGT RAIN  36  35  98 CALM      29.81F
$$

ILZ064>066-069>071-074>076-080>082-084>086-088>090-092>094-011500-
SOUTH-CENTRAL ILLINOIS

CITY           SKY/WX    TMP DP  RH WIND       PRES   REMARKS
CARBONDALE     RAIN      41  38  89 SW7       29.82R FOG
CAIRO*         LGT RAIN  45  40  84 SE16G23   29.78F
EFFINGHAM*     LGT RAIN  33  30  90 E9        29.85F WCI  25
MARION         LGT RAIN  43  39  87 S16       29.80F
MT. VERNON     CLOUDY    36  30  80 NE3       29.83F
CENTRALIA*     RAIN      34  32  92 E3        29.83S
SALEM*         LGT SNOW  36  34  91 E5        29.84R WCI  32
METROPOLIS*    RAIN      42  40  92 SE7       29.81F
$$

ILZ067-068-072-073-078-083-087-091-011500-
SOUTHEAST ILLINOIS

CITY           SKY/WX    TMP DP  RH WIND       PRES   REMARKS
LAWRENCEVILLE  RAIN      35  32  88 E9        29.87F FOG     WCI  28
FLORA*         RAIN      34  33  96 E5        29.84F WCI  30
FAIRFIELD*     MIX PCPN  37  35  94 CALM      29.83F
HARRISBURG*    LGT RAIN  41  37  88 S12       29.82F
ROBINSON*      LGT SNOW  33  31  94 E6        29.89F WCI  28
CARMI*         HVY RAIN  40  37  89 SE10      29.83F
$$

ABBREVIATIONS USED IN REMARKS
   TC - TEMPERATURE IN CELSIUS
  WCI - WIND CHILL INDEX
   HX - HEAT INDEX
  VSB - VISIBILITY
$$




USA.gov is the U.S. government's official web portal to all federal, state and local government web resources and services.